DECAYED

STARLINK-1292, 45394 (Decayed)

Orbit data source: Space-Track

STARLINK-1292, 45394 was a payload satellite owned by SpaceX/Seattle (US) in LEO that was launched on Wed, 18 Mar 2020 UTC via an FALCON 9 launch vehicle from the Air Force Eastern Test Range (AFETR). Payload-class satellites include a variety of spacecraft equipped with specific instruments for various scientific and technological missions. These include communications satellites like Starlink; space stations such as the ISS; scientific satellites like the Hubble; Earth observation satellites from companies like Planet Labs, Umbra, and HawkEye 360; GPS; miniature CubeSats for education and research; and military/defense satellites.

Not visible in the next 10 days
Identifier
45394, 2020-019AL
Orbit
Decayed
Country
Flag of USUS
Related business
Manufacturer
SpaceX/Seattle
Mission
Decayed Commercial Communications
Bus & Motor
STARLINK, Unknown motor
Mass
260 kg wet, ~248 kg dry
Launch date (UTC)
2020-03-18 (6 years ago)
Launch vehicle
FALCON 9
Launch site
Air Force Eastern Test Range (AFETR)
Object type
Payload
Rocket body
Debris
Shape & HBR
Box + 1 Pan, 10.1 m
Radar Cross Section
13.562 m², Large (>1 m²)

Expand to show TLE details & history
Last TLE update: 3 months ago

TLE from 3 months ago
0 STARLINK-1292
1 45394U 20019AL  25322.79281146  .09431394  12404-4  49048-3 0  9995
2 45394  53.0287 221.0229 0003998 242.2610 117.8032 16.42645405313912
Epoch: 2025-11-18T19:01Z
TLE epoch observation values (Epoch: 2025-11-18T19:01:38.910Z)
Latitude
-0.00002°
Longitude
-122.46305°
Altitude
160.923 km
Speed
7.81 km/s
True Right ascension
14h 44m 05s
True Declination
0° 00' 00"
Sunlit
Object was in daylight at epoch
Visualization orbit readout
Latitude
Unknown
Longitude
Unknown
Altitude
Unknown
Speed
Unknown
Apparent Right ascension
Unknown
Apparent Declination
Unknown
Sunlit
N/A
Visualization observer readout
Local Sidereal Time
03:38:37
Azimuth
Unknown
Elevation
Unknown
Doppler factor
Unknown
Orbital elements
Apogee altitude
161.679 km
Perigee altitude
156.452 km
Semi-major axis
6,537.203 km
Eccentricity
0.0004
Inclination
53.0287°
RAAN
221.0229°
Arg. of periapsis
242.261°
True anomaly
117.84372°
Mean anomaly
117.8032°
Eccentric anomaly
117.82346°
Mean motion
4.10634 °/min
Orbital period
87.67 mins
BSTAR
0.00049048
Loading maneuver chart data...
Computing Atmospheric mass density...

Documentation

Showing up to 5 results
|